Weather History for Mountain Home, AR

Change the Weather History Date:

Monday, April 1, 2013

  Actual Average (KHRO) Record (KHRO)
Temperature  
Mean Temperature 53 °F 54 °F  
Max Temperature 64 °F 65 °F 92 °F (1946)
Min Temperature 44 °F 42 °F 20 °F (1899)
Degree Days  
Heating Degree Days 12 12  
Month to date heating degree days 12  
Since 1 July heating degree days 3692  
Cooling Degree Days 0 1  
Month to date cooling degree days 1  
Year to date cooling degree days 7  
Growing Degree Days 3 (Base 50)    
Moisture  
Dew Point 36 °F    
Average Humidity 58    
Maximum Humidity 83    
Minimum Humidity 36    
Precipitation  
Precipitation 0.04 in 0.13 in 2.61 in (1917)
Month to date precipitation 0.13  
Year to date precipitation 9.12  
Snow  
Snow 0.00 in 0.10 in T in (1993)
Month to date snowfall 0.1  
Since 1 July snowfall 11.3  
Snow Depth -    
Sea Level Pressure  
Sea Level Pressure 30.08 in    
Wind  
Wind Speed 3 mph (North)    
Max Wind Speed 9 mph    
Max Gust Speed 18 mph    
Visibility 10 miles    
Events Rain    
T = Trace of Precipitation, MM = Missing Value Source: NWS Daily Summary

Daily Weather History Graph

Daily Weather History Graph

Search for Another Location

Airport:

Trip Planner

Search our weather history database for the weather conditions in past years. The results will help you decide how hot, cold, wet, or windy it might be!

Date:

Astronomy

Apr. 01, 2013 Rise Set
Actual Time 6:55 AM CDT 7:32 PM CDT
Civil Twilight 6:29 AM CDT 7:58 PM CDT
Nautical Twilight 5:59 AM CDT 8:28 PM CDT
Astronomical Twilight 5:27 AM CDT 9:00 PM CDT
Moon 12:33 AM CDT (4/1) 10:50 AM CDT (4/1)
Length of Visible Light 13h 28m
Length of Day
12h 36m
Waning Gibbous, 67% of the Moon is Illuminated
Apr 1
Waning Gibbous
Apr 2
Last Quarter
Apr 10
New
Apr 18
First Quarter
Apr 25
Full

Hourly Weather History & Observations

Time (CDT) Temp. Windchill Dew Point Humidity Pressure Visibility Wind Dir Wind Speed Gust Speed Precip Events Conditions
12:53 AM 51.1 °F - 37.0 °F 59% 29.95 in 9.0 mi North 3.5 mph - N/A   Clear
1:53 AM 48.9 °F - 37.9 °F 66% 29.96 in 9.0 mi Calm Calm - N/A   Clear
2:53 AM 46.9 °F - 37.9 °F 71% 29.96 in 10.0 mi Calm Calm - N/A   Clear
3:53 AM 44.1 °F - 39.0 °F 82% 29.98 in 10.0 mi Calm Calm - N/A   Clear
4:53 AM 45.0 °F - 39.0 °F 80% 29.99 in 10.0 mi Calm Calm - N/A   Clear
5:53 AM 45.0 °F 43.5 °F 39.0 °F 80% 30.03 in 10.0 mi NNW 3.5 mph - N/A   Clear
7:53 AM 46.9 °F - 36.0 °F 66% 30.08 in 10.0 mi NNE 5.8 mph - N/A   Clear
8:53 AM 48.0 °F - 33.1 °F 56% 30.11 in 10.0 mi NE 9.2 mph 18.4 mph N/A   Clear
9:53 AM 50.0 °F - 32.0 °F 50% 30.13 in 10.0 mi NE 8.1 mph - N/A   Clear
10:53 AM 53.1 °F - 33.1 °F 47% 30.13 in 10.0 mi ENE 5.8 mph - N/A   Clear
11:53 AM 55.9 °F - 33.1 °F 42% 30.13 in 10.0 mi ENE 6.9 mph - N/A   Clear
12:53 PM 57.9 °F - 33.1 °F 39% 30.13 in 10.0 mi Calm Calm - N/A   Clear
1:53 PM 61.0 °F - 34.0 °F 36% 30.11 in 10.0 mi Variable 3.5 mph - N/A   Clear
2:53 PM 62.1 °F - 35.1 °F 37% 30.09 in 10.0 mi Variable 4.6 mph - N/A   Scattered Clouds
3:53 PM 62.1 °F - 35.1 °F 37% 30.09 in 10.0 mi Variable 5.8 mph - N/A   Clear
4:53 PM 61.0 °F - 35.1 °F 38% 30.11 in 10.0 mi NNW 6.9 mph 16.1 mph N/A   Clear
5:53 PM 57.9 °F - 36.0 °F 44% 30.10 in 10.0 mi NNW 6.9 mph - N/A   Scattered Clouds
6:53 PM 51.1 °F - 41.0 °F 68% 30.13 in 7.0 mi NNW 3.5 mph - 0.02 in Rain Light Rain
7:53 PM 48.9 °F - 43.0 °F 80% 30.09 in 9.0 mi NE 4.6 mph - 0.02 in Rain Light Rain
8:53 PM 46.9 °F - 42.1 °F 83% 30.14 in 9.0 mi WNW 3.5 mph - 0.00 in   Mostly Cloudy
9:53 PM 48.0 °F - 37.0 °F 66% 30.14 in 10.0 mi Variable 4.6 mph - N/A   Mostly Cloudy
10:53 PM 46.9 °F - 33.1 °F 59% 30.16 in 10.0 mi North 4.6 mph - 0.00 in   Partly Cloudy
11:53 PM 46.0 °F 43.9 °F 30.0 °F 54% 30.18 in 10.0 mi North 4.6 mph - N/A   Overcast